Atlantic - Newfoundland: Past 24 Hour Conditions

 

Natashquan Airport

05:00 AM EST 29 January 2015
Disclaimer

This table is a summary of hourly weather conditions for the past 24 hours.
Please note that these observations might not always be representative of weather conditions over their associated marine area.

Date / Time
(EST)
Wind(knots) Conditions Visibility(km) Pressure(kPa) Air tempC) Relative humidity(%) Dew pointC) Wind Chill
29 January 2015
5:00 WNW 12 Clear 16 101.6 -16 81 -19 -26
4:00 WNW 4 Clear 16 101.5 -16 79 -19 -22
3:00 NW 11 gust 16 Clear 16 101.3 -16 77 -19 -25
2:00 NNW 10 gust 16 Clear 16 101.2 -16 77 -19 -25
1:00 NNW 14 Clear 16 101.2 -16 77 -19 -26
0:00 NNW 10 Clear 16 101.1 -15 78 -18 -24
28 January 2015
23:00 N 11 Clear 16 101.0 -14 79 -17 -23
22:00 N 11 gust 16 Light Snow 16 101.0 -13 81 -16 -22
21:00 N 11 gust 16 Cloudy 16 101.1 -13 82 -16 -22
20:00 N 12 gust 17 Cloudy 16 101.0 -13 85 -15 -22
19:00 N 12 gust 20 Light Snow 10 101.0 -13 88 -14 -22
18:00 N 13 gust 19 Light Snow 6 101.0 -12 89 -14 -22
17:00 N 15 gust 21 Light Snow 6 101.0 -12 87 -14 -22
16:00 N 13 Light Snow 10 101.0 -11 85 -13 -20
15:00 NNE 15 gust 20 Light Snow 16 100.9 -11 82 -13 -20
14:00 NNE 14 gust 21 Light Snow 15 100.8 -11 84 -13 -20
13:00 NNE 16 gust 22 Cloudy 16 100.9 -11 79 -14 -21
12:00 NNE 17 gust 24 Cloudy 16 100.9 -12 77 -15 -22
11:00 NNE 19 Light Snow 6 101.0 -12 77 -15 -23
10:00 NNE 14 gust 22 Light Snow 16 101.1 -13 79 -16 -23
9:00 N 17 gust 26 Light Snow 5 101.1 -14 81 -17 -25
8:00 NNE 20 Light Snow 2 101.1 -14 84 -16 -25
7:00 NNE 21 gust 28 Light Snow 1 101.0 -14 85 -16 -26
6:00 NNE 23 gust 28 Light Snow 2 101.1 -15 84 -17 -27
5:00 NNE 18 gust 24 Light Snow 2 101.1 -15 85 -17 -27
Map of Atlantic - Newfoundland marine weather areas Southwestern Grand Banks - 44138 Banquereau - 44139 Tail of the Bank - 44140 Nickerson Bank - 44251 Northeast Burgeo Bank - 44255 Blanc-Sablon Airport Cap Whittle Chevery Natashquan Airport Heath Point Miscou Island Grand Étang Ingonish Beach North Mountain St.Paul Island J.A. Douglas McCurdy Sydney Airport Charlottetown Airport East Point North Cape Argentia Bonavista Burgeo Cape Race Corner Brook Daniel's Harbour Englee Ferolle Point La Scie Port aux Basques Rocky Harbour Sagona Island St. Anthony Airport St. John's Int'l Airport St. Lawrence Stephenville Airport Twillingate Winterland Wreckhouse Cartwright Airport Mary's Harbour Grates Cove Pool's Island Marticot Island Long Pond Îles de la Madeleine Airport
Legend:
buoy Buoy
land station Land Station

Atlantic - Newfoundland Area

Another Region

What we are doing

Date modified: